• In Germany
  • List of Countries
  • For 7 days
  • Water Temperature
  • Satellite Maps
  • Weather Map
  • Weather Widgets
  • user-avatar
    Login

    Hourly Weather Tskhinvali

    Today, 21 October, Sunday

    Time Temperature Precipitation Wind Pressure Humidity
    00:00 +13°C° 0 mm 1 mps 683 mmHg 68%
    01:00 +13°C° 0 mm 1 mps 682 mmHg 68%
    02:00 +13°C° 0 mm 1 mps 682 mmHg 68%
    03:00 +12°C° 0 mm 1 mps 682 mmHg 68%
    04:00 +12°C° 0 mm 1 mps 682 mmHg 67%
    05:00 +12°C° 0 mm 1 mps 682 mmHg 67%
    06:00 +12°C° 0 mm 1 mps 682 mmHg 67%
    07:00 +14°C° 0 mm 1 mps 682 mmHg 63%
    08:00 +16°C° 0 mm 1 mps 683 mmHg 59%
    09:00 +18°C° 0 mm 1 mps 683 mmHg 54%
    10:00 +19°C° 0 mm 2 mps 683 mmHg 52%
    11:00 +20°C° 0 mm 2 mps 683 mmHg 50%
    12:00 +21°C° 0 mm 2 mps 683 mmHg 48%
    13:00 +21°C° 0 mm 2 mps 683 mmHg 48%
    14:00 +21°C° 0 mm 2 mps 683 mmHg 48%
    15:00 +21°C° 0 mm 2 mps 683 mmHg 48%
    16:00 +19°C° 0 mm 2 mps 683 mmHg 55%
    17:00 +18°C° 0 mm 1 mps 682 mmHg 63%
    18:00 +15°C° 0 mm 1 mps 682 mmHg 71%
    19:00 +15°C° 0 mm 1 mps 682 mmHg 72%
    20:00 +14°C° 0 mm 1 mps 683 mmHg 72%
    21:00 +14°C° 0 mm 1 mps 683 mmHg 73%
    22:00 +14°C° 0 mm 1 mps 683 mmHg 72%
    23:00 +14°C° 0 mm 1 mps 683 mmHg 72%

    Tomorrow, 22 October, Monday

    Time Temperature Precipitation Wind Pressure Humidity
    00:00 +13°C° 0 mm 1 mps 683 mmHg 72%
    01:00 +13°C° 0 mm 1 mps 683 mmHg 72%
    02:00 +13°C° 0 mm 1 mps 683 mmHg 72%
    03:00 +13°C° 0 mm 1 mps 683 mmHg 72%
    04:00 +13°C° 0 mm 1 mps 683 mmHg 72%
    05:00 +13°C° 0 mm 1 mps 683 mmHg 72%
    06:00 +13°C° 0 mm 1 mps 683 mmHg 72%
    07:00 +13°C° 0.2 mm 1 mps 683 mmHg 70%
    08:00 +14°C° 0.2 mm 1 mps 684 mmHg 68%
    09:00 +15°C° 0.2 mm 2 mps 684 mmHg 66%
    10:00 +16°C° 0.1 mm 2 mps 684 mmHg 64%
    11:00 +16°C° 0.1 mm 2 mps 684 mmHg 62%
    12:00 +17°C° 0.1 mm 2 mps 684 mmHg 60%
    13:00 +17°C° 0 mm 2 mps 684 mmHg 58%
    14:00 +18°C° 0 mm 2 mps 684 mmHg 56%
    15:00 +18°C° 0 mm 2 mps 684 mmHg 54%
    16:00 +18°C° 0 mm 1 mps 684 mmHg 62%
    17:00 +15°C° 0 mm 1 mps 684 mmHg 69%
    18:00 +13°C° 0 mm 1 mps 683 mmHg 77%
    19:00 +13°C° 0 mm 1 mps 683 mmHg 77%
    20:00 +12°C° 0 mm 1 mps 684 mmHg 77%
    21:00 +12°C° 0 mm 1 mps 684 mmHg 78%
    22:00 +12°C° 0 mm 1 mps 684 mmHg 76%
    23:00 +12°C° 0 mm 1 mps 684 mmHg 75%

    Day after tomorrow, 23 October, Tuesday

    Time Temperature Precipitation Wind Pressure Humidity
    00:00 +11°C° 0 mm 0 mps 683 mmHg 74%
    01:00 +11°C° 0 mm 1 mps 683 mmHg 74%
    02:00 +11°C° 0 mm 1 mps 683 mmHg 73%
    03:00 +11°C° 0 mm 1 mps 683 mmHg 73%
    04:00 +11°C° 0 mm 1 mps 683 mmHg 72%
    05:00 +11°C° 0 mm 1 mps 683 mmHg 71%
    06:00 +11°C° 0 mm 1 mps 683 mmHg 71%
    07:00 +13°C° 0 mm 1 mps 683 mmHg 66%
    08:00 +14°C° 0 mm 1 mps 684 mmHg 62%
    09:00 +16°C° 0 mm 1 mps 684 mmHg 57%
    10:00 +18°C° 0 mm 1 mps 684 mmHg 55%
    11:00 +18°C° 0 mm 2 mps 684 mmHg 53%
    12:00 +19°C° 0 mm 2 mps 684 mmHg 51%
    13:00 +19°C° 0 mm 2 mps 683 mmHg 52%
    14:00 +19°C° 0 mm 2 mps 683 mmHg 52%
    15:00 +18°C° 0 mm 2 mps 683 mmHg 53%
    16:00 +18°C° 0 mm 1 mps 682 mmHg 62%
    17:00 +15°C° 0 mm 1 mps 682 mmHg 70%
    18:00 +12°C° 0 mm 0 mps 682 mmHg 78%
    19:00 +11°C° 0 mm 0 mps 682 mmHg 78%
    20:00 +12°C° 0 mm 1 mps 682 mmHg 78%
    21:00 +12°C° 0 mm 1 mps 682 mmHg 78%
    22:00 +12°C° 0 mm 1 mps 681 mmHg 77%
    23:00 +11°C° 0 mm 1 mps 681 mmHg 75%

    24 October, Wednesday

    Time Temperature Precipitation Wind Pressure Humidity
    00:00 +11°C° 0 mm 1 mps 681 mmHg 74%
    01:00 +11°C° 0 mm 1 mps 681 mmHg 74%
    02:00 +11°C° 0 mm 1 mps 680 mmHg 74%
    03:00 +11°C° 0 mm 1 mps 680 mmHg 73%
    04:00 +11°C° 0 mm 1 mps 680 mmHg 73%
    05:00 +11°C° 0 mm 1 mps 680 mmHg 72%
    06:00 +11°C° 0 mm 1 mps 679 mmHg 72%
    07:00 +12°C° 0 mm 1 mps 680 mmHg 65%
    08:00 +14°C° 0 mm 2 mps 680 mmHg 59%
    09:00 +16°C° 0 mm 2 mps 680 mmHg 53%
    10:00 +18°C° 0 mm 2 mps 680 mmHg 49%
    11:00 +19°C° 0 mm 3 mps 679 mmHg 46%
    12:00 +20°C° 0 mm 3 mps 679 mmHg 42%
    13:00 +20°C° 0 mm 3 mps 678 mmHg 44%
    14:00 +19°C° 0 mm 3 mps 678 mmHg 46%
    15:00 +19°C° 0 mm 3 mps 677 mmHg 48%
    16:00 +17°C° 0.1 mm 2 mps 677 mmHg 57%
    17:00 +16°C° 0.1 mm 2 mps 677 mmHg 66%
    18:00 +14°C° 0.1 mm 2 mps 676 mmHg 75%
    19:00 +14°C° 0 mm 2 mps 676 mmHg 76%
    20:00 +13°C° 0 mm 2 mps 676 mmHg 77%
    21:00 +13°C° 0 mm 2 mps 676 mmHg 79%
    22:00 +13°C° 0 mm 2 mps 675 mmHg 79%
    23:00 +13°C° 0 mm 2 mps 675 mmHg 79%

    25 October, Thursday

    Time Temperature Precipitation Wind Pressure Humidity
    00:00 +13°C° 0 mm 2 mps 674 mmHg 79%
    01:00 +12°C° 0 mm 2 mps 674 mmHg 80%
    02:00 +12°C° 0 mm 2 mps 674 mmHg 80%
    03:00 +12°C° 0 mm 2 mps 673 mmHg 80%
    04:00 +12°C° 0 mm 2 mps 673 mmHg 80%
    05:00 +12°C° 0 mm 2 mps 673 mmHg 81%
    06:00 +10°C° 0 mm 2 mps 673 mmHg 81%
    07:00 +13°C° 0 mm 2 mps 673 mmHg 74%
    08:00 +14°C° 0 mm 2 mps 673 mmHg 68%
    09:00 +16°C° 0 mm 3 mps 673 mmHg 62%
    10:00 +16°C° 0.2 mm 3 mps 673 mmHg 62%
    11:00 +16°C° 0.2 mm 3 mps 672 mmHg 63%
    12:00 +17°C° 0.2 mm 3 mps 672 mmHg 63%
    13:00 +17°C° 0.3 mm 3 mps 672 mmHg 65%
    14:00 +16°C° 0.3 mm 3 mps 671 mmHg 67%
    15:00 +16°C° 0.3 mm 3 mps 671 mmHg 70%
    16:00 +14°C° 0.3 mm 3 mps 671 mmHg 73%
    17:00 +14°C° 0.3 mm 3 mps 671 mmHg 77%
    18:00 +13°C° 0.3 mm 3 mps 671 mmHg 80%
    19:00 +13°C° 0.4 mm 3 mps 671 mmHg 82%
    20:00 +12°C° 0.4 mm 3 mps 672 mmHg 83%
    21:00 +12°C° 0.4 mm 3 mps 672 mmHg 85%
    22:00 +12°C° 1.1 mm 3 mps 672 mmHg 86%
    23:00 +12°C° 1.1 mm 3 mps 672 mmHg 87%

    26 October, Friday

    Time Temperature Precipitation Wind Pressure Humidity
    00:00 +11°C° 1.1 mm 3 mps 672 mmHg 88%
    01:00 +11°C° 2.4 mm 3 mps 673 mmHg 90%
    02:00 +10°C° 2.4 mm 3 mps 673 mmHg 92%
    03:00 +8°C° 2.4 mm 4 mps 673 mmHg 95%
    04:00 +8°C° 0.7 mm 3 mps 673 mmHg 93%
    05:00 +8°C° 0.7 mm 3 mps 674 mmHg 92%
    06:00 +7°C° 0.7 mm 3 mps 674 mmHg 90%
    07:00 +7°C° 0.8 mm 3 mps 675 mmHg 89%
    08:00 +7°C° 0.8 mm 3 mps 675 mmHg 88%
    09:00 +7°C° 0.8 mm 3 mps 676 mmHg 87%
    10:00 +7°C° 0.9 mm 3 mps 676 mmHg 86%
    11:00 +7°C° 0.9 mm 3 mps 677 mmHg 85%
    12:00 +8°C° 0.9 mm 3 mps 677 mmHg 84%
    13:00 +8°C° 0.1 mm 3 mps 677 mmHg 82%
    14:00 +8°C° 0.1 mm 3 mps 678 mmHg 80%
    15:00 +7°C° 0.1 mm 4 mps 678 mmHg 79%
    16:00 +7°C° 0 mm 3 mps 678 mmHg 81%
    17:00 +7°C° 0 mm 3 mps 679 mmHg 84%
    18:00 +5°C° 0 mm 3 mps 679 mmHg 86%
    19:00 +5°C° 0 mm 3 mps 680 mmHg 86%
    20:00 +5°C° 0 mm 3 mps 680 mmHg 86%
    21:00 +4°C° 0 mm 3 mps 681 mmHg 86%
    22:00 +5°C° 0.1 mm 2 mps 681 mmHg 86%
    23:00 +5°C° 0.1 mm 2 mps 682 mmHg 86%
    Show more